Flag for Germany Weather past 2 weeks in Öhringen, Baden-Württemberg, Germany

Now
36 °F

Passing clouds.


Feels Like: 36 °F
Forecast: 28 / 51 °F
Wind: 1 mph from Southeast

Location: Oehringen

Current Time: Mar 6, 2015 at 10:04:13 PM

Latest Report: Mar 6, 2015 at 9:00 PM


Visibility: 11 mi

Pressure: 30.63 "Hg

Humidity: 77%

Dew point: 30 °F

Location of ÖhringenLocation

Historic Weather in Öhringen — Graph

°F

Öhringen temperature yesterday

Maximum temperature yesterday: 44 °F (at 4:00 PM)
Minimum temperature yesterday: 34 °F (at 7:00 AM)
Average temperature yesterday: 39 °F

Past Weeks' High & Low Weather Summary

 TemperatureHumidityPressure
High57 °F (Feb 20, 4:00 PM)98% (Feb 28, 6:00 AM)30.70 "Hg (Feb 28, 6:00 AM)
Low24 °F (Feb 20, 7:00 AM)34% (Feb 21, 1:00 AM)29.53 "Hg (Feb 21, 11:00 AM)
Average40 °F75%30.04 "Hg
* Reported Feb 19 9:00 PM — Mar 6 9:00 PM, Öhringen, Weather by CustomWeather, © 2015

Note: Actual official high and low records may vary slightly from our data, if they occured in-between our weather recording intervals... More about our weather records

Advertising

Öhringen weather history for previous 24 hours

 ConditionsComfort  
Time TempWeatherWind HumidityBarometerVisibility
9:00 PM
Fri, Mar 6
36 °FPassing clouds.1 mph77%30.63 "Hg11 mi
8:00 PM39 °FPassing clouds.2 mph74%30.63 "Hg7 mi
7:00 PM42 °FPassing clouds.2 mph64%30.61 "Hg11 mi
6:00 PM45 °FSunny.2 mph51%30.59 "Hg19 mi
5:00 PM47 °FSunny.3 mph47%30.59 "Hg16 mi
4:00 PM47 °FScattered clouds.3 mph47%30.60 "Hg18 mi
3:00 PM46 °FPassing clouds.2 mph53%30.62 "Hg17 mi
2:00 PM46 °FOvercast.3 mph48%30.64 "Hg16 mi
1:00 PM46 °FOvercast.3 mph53%30.65 "Hg14 mi
12:00 PM45 °FPassing clouds.2 mph59%30.67 "Hg16 mi
11:00 AM41 °FSunny.2 mph65%30.68 "Hg15 mi
10:00 AM38 °FSunny.2 mph69%30.69 "Hg9 mi
9:00 AM32 °FPassing clouds.1 mph87%30.70 "Hg9 mi
8:00 AM31 °FOvercast.No wind88%30.70 "Hg10 mi
7:00 AM31 °FOvercast.1 mph90%30.70 "Hg12 mi
6:00 AM30 °FPassing clouds.1 mph90%30.68 "Hg15 mi
5:00 AM31 °FClear.2 mph88%30.67 "Hg16 mi
4:00 AM31 °FOvercast.1 mph89%30.67 "Hg16 mi
3:00 AM30 °FClear.1 mph89%30.67 "Hg13 mi
2:00 AM32 °FPassing clouds.2 mph86%30.68 "Hg14 mi
1:00 AM33 °FClear.1 mph85%30.67 "Hg14 mi
12:00 AM35 °FPassing clouds.1 mph81%30.67 "Hg16 mi
10:00 PM
Thu, Mar 5
37 °FOvercast.1 mph73%30.66 "Hg12 mi
Weather by CustomWeather, © 2015

See weather overviewHow to use our weather pages